DW8722 Weather Reports


time (UTC)temp
C
wind
direction
speed
KPH
gust
KPH
rain 1hr
cm
rain 24hr
cm
rain mn
cm
humidity
%
barometer
mb
20260905181128 36 150 3.2 14.5 0.00 0.00 0.00 46 1012.7
20260905180054 36 103 9.7 17.7 0.00 0.00 0.00 47 1013.1
20260905175054 35 194 3.2 17.7 0.00 0.00 0.00 50 1013.2
20260905174115 35 198 0.0 16.1 0.00 0.00 0.00 50 1013.3
20260905173051 34 211 4.8 16.1 0.00 0.00 0.00 52 1013.5
20260905172101 34 166 3.2 12.9 0.00 0.00 0.00 51 1013.6
20260905171056 33 130 0.0 4.8 0.00 0.00 0.00 55 1013.6
20260905170055 33 215 4.8 11.3 0.00 0.00 0.00 53 1013.7
20260905165120 33 191 3.2 9.7 0.00 0.00 0.00 54 1013.8
20260905164143 33 223 1.6 3.2 0.00 0.00 0.00 55 1013.8
20260905161952 32 227 0.0 11.3 0.00 0.00 0.00 59 1013.9
20260905161006 32 196 3.2 11.3 0.00 0.00 0.00 59 1013.9
20260905155949 31 138 0.0 3.2 0.00 0.00 0.00 61 1013.9
20260905153817 31 270 3.2 9.7 0.00 0.00 0.00 63 1013.9
20260905151655 30 240 1.6 9.7 0.00 0.00 0.00 67 1013.8
20260905150703 30 200 0.0 6.4 0.00 0.00 0.00 67 1013.7
20260905145638 30 239 3.2 9.7 0.00 0.00 0.00 68 1013.7
20260905144700 30 171 1.6 9.7 0.00 0.00 0.00 70 1013.8
20260905143704 29 198 3.2 8.0 0.00 0.00 0.00 71 1013.7
20260905142701 29 266 1.6 9.7 0.00 0.00 0.00 72 1013.7
20260905141633 28 228 3.2 9.7 0.00 0.00 0.00 73 1013.7
20260905140615 28 184 1.6 8.0 0.00 0.00 0.00 75 1013.6
20260905135547 27 194 0.0 6.4 0.00 0.00 0.00 77 1013.6
20260905134602 27 217 0.0 0.0 0.00 0.00 0.00 80 1013.5
20260905132436 25 150 0.0 0.0 0.00 0.00 0.00 85 1013.5
20260905131444 25 150 0.0 0.0 0.00 0.00 0.00 87 1013.5
20260905130418 24 150 0.0 0.0 0.00 0.00 0.00 88 1013.4
20260905125345 23 150 0.0 0.0 0.00 0.00 0.00 89 1013.3
20260905124325 23 150 0.0 0.0 0.00 0.00 0.00 88 1013.3
20260905122120 23 150 0.0 0.0 0.00 0.00 0.00 87 1012.8
20260905121107 23 150 0.0 0.0 0.00 0.00 0.00 87 1012.7
20260905114956 23 150 0.0 0.0 0.00 0.00 0.00 88 1012.6
20260905112901 23 71 0.0 0.0 0.00 0.00 0.00 87 1012.6
20260905111919 23 71 0.0 0.0 0.00 0.00 0.00 87 1012.6
20260905110912 23 71 0.0 0.0 0.00 0.00 0.00 86 1012.6
20260905105930 23 71 0.0 0.0 0.00 0.00 0.00 86 1012.7
20260905104929 23 71 0.0 0.0 0.00 0.00 0.00 86 1012.6
20260905103903 23 71 0.0 0.0 0.00 0.00 0.00 86 1012.8
20260905102927 23 71 0.0 0.0 0.00 0.00 0.00 86 1013.0
20260905100838 23 71 0.0 0.0 0.00 0.00 0.00 85 1012.8
20260905095826 23 71 0.0 0.0 0.00 0.00 0.00 85 1012.7
20260905094829 23 71 0.0 0.0 0.00 0.00 0.00 84 1012.6
20260905093806 24 71 0.0 0.0 0.00 0.00 0.00 84 1012.6
20260905092807 24 73 0.0 0.0 0.00 0.00 0.00 84 1012.5
20260905091825 24 151 0.0 0.0 0.00 0.00 0.00 83 1012.4
20260905090842 24 151 0.0 0.0 0.00 0.00 0.00 82 1012.2
20260905085842 25 151 0.0 0.0 0.00 0.00 0.00 82 1012.1
20260905083710 25 148 0.0 0.0 0.00 0.00 0.00 82 1012.1
20260905082726 25 145 0.0 0.0 0.00 0.00 0.00 82 1012.1
20260905081727 25 145 0.0 0.0 0.00 0.00 0.00 81 1012.1
20260905075615 25 145 0.0 0.0 0.00 0.00 0.00 82 1012.2
20260905074630 25 145 0.0 0.0 0.00 0.00 0.00 80 1012.1
20260905073607 25 134 0.0 0.0 0.00 0.00 0.00 80 1012.2
20260905072556 25 134 0.0 0.0 0.00 0.00 0.00 78 1012.3
20260905065322 26 134 0.0 0.0 0.00 0.00 0.00 77 1012.6
20260905064317 26 134 0.0 1.6 0.00 0.00 0.00 77 1012.7
20260905063339 26 134 1.6 0.0 0.00 0.00 0.00 77 1012.7
20260905062307 26 147 0.0 1.6 0.00 0.00 0.00 77 1012.6
20260905060228 26 164 0.0 0.0 0.00 0.00 0.00 75 1012.5
20260905055156 26 164 0.0 0.0 0.00 0.00 0.00 74 1012.5
20260905054206 26 164 0.0 0.0 0.00 0.00 0.00 72 1012.3
20260905052030 27 164 0.0 0.0 0.00 0.00 0.00 72 1012.3
20260905051014 27 164 0.0 0.0 0.00 0.05 0.00 71 1012.2
20260905050032 27 167 0.0 4.8 0.00 0.05 0.00 70 1012.3
20260905043941 27 167 0.0 0.0 0.00 0.05 0.00 69 1012.2
20260905042920 28 170 1.6 8.0 0.00 0.05 0.00 69 1012.2
20260905040723 28 153 1.6 6.4 0.00 0.05 0.00 69 1012.2
20260905035734 28 155 1.6 4.8 0.00 0.05 0.00 69 1012.2
20260905034710 28 158 0.0 4.8 0.00 0.05 0.00 69 1012.2
20260905033703 28 150 0.0 1.6 0.00 0.05 0.00 68 1012.2
20260905032634 28 149 0.0 1.6 0.00 0.05 0.00 67 1012.3
20260905031604 28 157 0.0 3.2 0.00 0.05 0.00 67 1012.2
20260905030547 28 153 0.0 3.2 0.00 0.05 0.00 66 1012.2
20260905024407 29 136 0.0 0.0 0.00 0.05 0.00 64 1011.8
20260905023417 29 132 0.0 0.0 0.00 0.05 0.00 63 1011.9
20260905022409 30 132 0.0 0.0 0.00 0.05 0.00 62 1011.6
20260905021356 30 132 0.0 0.0 0.00 0.05 0.00 61 1011.4
20260905020357 30 132 0.0 0.0 0.00 0.05 0.00 61 1011.4
20260905015344 30 129 0.0 0.0 0.00 0.05 0.00 59 1011.4
20260905014401 31 126 0.0 0.0 0.00 0.05 0.00 58 1011.2
20260905013421 31 140 0.0 0.0 0.00 0.05 0.00 57 1011.0
20260905011310 32 142 0.0 6.4 0.00 0.05 0.00 54 1010.9
20260905010333 32 143 3.2 6.4 0.00 0.05 0.00 54 1010.8
20260905005338 33 135 3.2 11.3 0.00 0.05 0.00 52 1010.8
20260905004325 33 140 4.8 17.7 0.00 0.05 0.00 51 1010.7
20260905003326 33 124 8.0 17.7 0.00 0.05 0.00 50 1010.7
20260905002252 34 125 8.0 14.5 0.00 0.05 0.00 49 1010.6
20260904233941 36 161 4.8 16.1 0.00 0.05 0.00 45 1010.4
20260904232920 36 176 8.0 19.3 0.00 0.05 0.00 45 1010.4
20260904231923 36 168 11.3 19.3 0.00 0.05 0.00 45 1010.4
20260904230903 36 123 6.4 24.1 0.00 0.05 0.00 44 1010.3
20260904224757 36 136 8.0 17.7 0.00 0.05 0.00 44 1010.5
20260904223745 36 111 8.0 20.9 0.00 0.05 0.00 43 1010.5
20260904222713 37 118 11.3 20.9 0.00 0.05 0.00 43 1010.5
20260904221641 37 139 11.3 22.5 0.00 0.05 0.00 43 1010.5
20260904215517 37 178 9.7 25.7 0.00 0.05 0.00 42 1010.6
20260904214500 37 144 11.3 25.7 0.00 0.05 0.00 41 1010.9
20260904213514 37 215 11.3 22.5 0.00 0.05 0.00 42 1010.9
20260904212534 37 171 11.3 22.5 0.00 0.05 0.00 41 1010.9
20260904211509 37 203 8.0 22.5 0.00 0.05 0.00 42 1011.0
20260904210534 37 124 12.9 22.5 0.00 0.05 0.00 43 1011.1
20260904204412 36 188 6.4 17.7 0.00 0.05 0.00 45 1011.2
20260904203349 36 190 8.0 22.5 0.00 0.05 0.00 43 1011.4
20260904202322 36 132 8.0 22.5 0.00 0.05 0.00 44 1011.5
20260904201335 37 140 11.3 20.9 0.00 0.05 0.00 43 1011.7
20260904200359 36 147 9.7 17.7 0.00 0.05 0.00 44 1011.7
20260904195340 36 126 6.4 19.3 0.00 0.05 0.00 43 1011.9
20260904194341 36 197 9.7 22.5 0.00 0.05 0.00 43 1012.0
20260904192221 36 157 8.0 19.3 0.00 0.05 0.00 45 1012.2
20260904191220 36 181 9.7 20.9 0.00 0.05 0.00 46 1012.3
20260904190155 36 175 8.0 20.9 0.00 0.05 0.00 47 1012.5
20260904185137 35 186 8.0 24.1 0.00 0.05 0.00 48 1012.6
20260904184139 35 164 11.3 24.1 0.00 0.05 0.00 47 1012.8
20260904183147 35 113 4.8 20.9 0.00 0.05 0.00 48 1013.0